Regional Weather Roundup
Issued by NWS Little Rock, AR

Home | Current Version | Previous Version | Graphics & Text | Print | Product List | Glossary On
Versions: 1 2 3 4 5 6 7 8 9 10 11 12 13 14 15 16 17 18 19 20 21 22 23 24 25 26 27 28 29 30 31 32 33 34 35 36 37 38 39 40 41 42 43 44 45 46 47 48 49 50
000
ASUS44 KLZK 030105
RWRLZK

WEATHER ROUNDUP FOR ARKANSAS
NATIONAL WEATHER SERVICE LITTLE ROCK AR
800 PM CDT WED SEP 02 2015

NOTE: "FAIR" INDICATES FEW OR NO CLOUDS BELOW 12,000 FEET WITH NO
SIGNIFICANT WEATHER AND/OR OBSTRUCTIONS TO VISIBILITY.

ARZ001-003-010-029-030200-
NORTHWEST ARKANSAS

CITY           SKY/WX    TMP DP  RH WIND       PRES   REMARKS
FAYETTEVILLE   CLEAR     75  70  84 CALM      29.99F
FORT SMITH     MOCLDY    85  67  54 CALM      29.93F HX  87
HARRISON       CLEAR     77  65  66 SW3       30.01S
BENTONVILLE    CLEAR     81  64  57 S3        30.01S
ROGERS         CLEAR     78  68  71 SE5       30.01S
SILOAM SPGS    CLEAR     81  64  57 S5        29.98S
HIGHFILL       CLEAR     81  68  64 CALM      30.00S
SPRINGDALE     CLEAR     82  66  57 SE5       30.02S HX  85
$$

ARZ004-005-016-030200-
NORTH CENTRAL ARKANSAS

CITY           SKY/WX    TMP DP  RH WIND       PRES   REMARKS
BATESVILLE     CLEAR     82  70  65 E3        29.98S HX  86
FLIPPIN        CLEAR     82  64  54 SE3       29.98S
MTN HOME       CLEAR     80  68  66 SE3       29.99S
$$

ARZ040-041-030200-
WEST CENTRAL ARKANSAS

CITY           SKY/WX    TMP DP  RH WIND       PRES   REMARKS
MENA           CLEAR     84  64  51 CALM      30.00S HX  86
MOUNT IDA      CLEAR     81  68  64 VRB5      29.98F
$$

ARZ009-017-025-026-028-030200-
NORTHEAST ARKANSAS

CITY           SKY/WX    TMP DP  RH WIND       PRES   REMARKS
JONESBORO      CLEAR     76  72  87 CALM      29.98S
NEWPORT        CLEAR     81  73  76 E6        29.98F HX  86
WALNUT RIDGE   CLEAR     82  70  65 CALM      29.98S HX  86
BLYTHEVILLE    CLEAR     83  72  69 CALM      29.98S HX  88
$$

ARZ022-023-033-042-044-030200-
CENTRAL ARKANSAS

CITY           SKY/WX    TMP DP  RH WIND       PRES   REMARKS
LITTLE ROCK    PTCLDY    80  69  69 CALM      29.98F
N LITTLE ROCK  PTCLDY    75  73  93 S3        29.98F
SEARCY         CLEAR     82  71  69 SW6       29.99S HX  86
HOT SPRINGS    CLEAR     80  68  66 SE3       29.99F
RUSSELLVILLE   CLEAR     80  68  66 CALM      29.97S
$$

ARZ036-030200-
EAST ARKANSAS

CITY           SKY/WX    TMP DP  RH WIND       PRES   REMARKS
WEST MEMPHIS   PTCLDY    75  74  96 S5        29.97F
$$

ARZ050-053-066-070-073-030200-
SOUTHWEST ARKANSAS

CITY           SKY/WX    TMP DP  RH WIND       PRES   REMARKS
ARKADELPHIA    FAIR      77  72  84 SW3       29.98S
CAMDEN         PTCLDY    77  70  78 CALM      29.97F
TEXARKANA      CLEAR     84  64  50 SE5       29.97S HX  85
EL DORADO      CLEAR     78  68  71 NE5       29.98F
DE QUEEN       CLEAR     84  70  62 SE7       29.94S HX  88
$$

ARZ056-057-069-030200-
SOUTHEAST ARKANSAS

CITY           SKY/WX    TMP DP  RH WIND       PRES   REMARKS
PINE BLUFF     PTCLDY    75  72  90 CALM      29.98F
STUTTGART      CLEAR     81  66  61 SW6       29.98F
MONTICELLO     PTCLDY    75  75 100 CALM      29.98F

$$




USA.gov is the U.S. government's official web portal to all federal, state and local government web resources and services.